Time,TemperatureF,DewpointF,PressureIn,WindDirection,WindDirectionDegrees,WindSpeedMPH,WindSpeedGustMPH,Humidity,HourlyPrecipIn,Conditions,Clouds,dailyrainin,SolarRadiationWatts/m^2,SoftwareType,DateUTC
2013-04-09 00:02:00,67.0,61.3,29.55,East,92,11.5,11.5,82,0.00,OVC,,0.00,0.0,WeatherDisplay:10.37,2013-04-09 05:02:00,
2013-04-09 00:07:00,67.0,61.3,29.55,SE,124,9.2,9.2,82,0.00,OVC,,0.00,0.0,WeatherDisplay:10.37,2013-04-09 05:07:00,
2013-04-09 00:12:00,67.0,61.7,29.55,SSE,150,17.3,17.3,83,0.00,OVC,,0.00,0.0,WeatherDisplay:10.37,2013-04-09 05:12:00,
2013-04-09 00:17:00,67.0,61.7,29.55,SE,127,9.2,9.2,83,0.00,OVC,,0.00,0.0,WeatherDisplay:10.37,2013-04-09 05:17:00,
2013-04-09 00:22:00,67.0,61.7,29.55,SE,131,9.2,9.2,83,0.00,OVC,,0.00,0.0,WeatherDisplay:10.37,2013-04-09 05:22:00,
2013-04-09 00:27:00,67.0,61.7,29.56,SE,146,13.8,13.8,83,0.00,OVC,,0.00,0.0,WeatherDisplay:10.37,2013-04-09 05:27:00,
2013-04-09 00:32:00,67.0,61.7,29.55,ESE,123,10.0,10.0,83,0.00,OVC,,0.00,0.0,WeatherDisplay:10.37,2013-04-09 05:32:00,
2013-04-09 00:37:00,67.0,61.7,29.55,South,180,8.1,8.1,83,0.00,OVC,,0.00,0.0,WeatherDisplay:10.37,2013-04-09 05:37:00,
2013-04-09 00:42:00,67.0,61.7,29.55,ESE,118,13.8,13.8,83,0.00,OVC,,0.00,0.0,WeatherDisplay:10.37,2013-04-09 05:42:00,
2013-04-09 00:47:00,67.1,61.8,29.55,South,177,15.0,15.0,83,0.00,OVC,,0.00,0.0,WeatherDisplay:10.37,2013-04-09 05:47:00,
2013-04-09 00:52:00,67.1,61.8,29.55,SE,131,12.7,12.7,83,0.00,OVC,,0.00,0.0,WeatherDisplay:10.37,2013-04-09 05:52:00,
2013-04-09 00:57:00,67.1,61.8,29.55,SE,128,13.8,13.8,83,0.00,OVC,,0.00,0.0,WeatherDisplay:10.37,2013-04-09 05:57:00,
2013-04-09 01:02:00,67.1,61.8,29.55,SE,142,9.2,9.2,83,0.00,OVC,,0.00,0.0,WeatherDisplay:10.37,2013-04-09 06:02:00,
2013-04-09 01:07:00,67.1,62.1,29.54,ESE,111,11.5,11.5,84,0.00,OVC,,0.00,0.0,WeatherDisplay:10.37,2013-04-09 06:07:00,
2013-04-09 01:12:00,67.2,62.2,29.55,SE,138,11.5,11.5,84,0.00,OVC,,0.00,0.0,WeatherDisplay:10.37,2013-04-09 06:12:00,
2013-04-09 01:17:00,67.2,62.2,29.55,ESE,112,11.5,11.5,84,0.00,OVC,,0.00,0.0,WeatherDisplay:10.37,2013-04-09 06:17:00,
2013-04-09 01:22:00,67.2,62.2,29.55,SSE,163,11.5,11.5,84,0.00,OVC,,0.00,0.0,WeatherDisplay:10.37,2013-04-09 06:22:00,
2013-04-09 01:27:00,67.2,62.2,29.54,SE,134,16.1,16.1,84,0.00,OVC,,0.00,0.0,WeatherDisplay:10.37,2013-04-09 06:27:00,
2013-04-09 01:32:00,67.2,62.2,29.54,South,186,9.2,9.2,84,0.00,OVC,,0.00,0.0,WeatherDisplay:10.37,2013-04-09 06:32:00,
2013-04-09 01:37:00,67.2,62.2,29.54,SE,132,12.7,12.7,84,0.00,OVC,,0.00,0.0,WeatherDisplay:10.37,2013-04-09 06:37:00,
2013-04-09 01:42:00,67.3,62.3,29.54,South,186,8.1,8.1,84,0.00,OVC,,0.00,0.0,WeatherDisplay:10.37,2013-04-09 06:42:00,
2013-04-09 01:47:00,67.3,62.3,29.54,SE,136,11.5,11.5,84,0.00,OVC,,0.00,0.0,WeatherDisplay:10.37,2013-04-09 06:47:00,
2013-04-09 01:52:00,67.3,62.3,29.54,SSE,161,10.4,10.4,84,0.00,OVC,,0.00,0.0,WeatherDisplay:10.37,2013-04-09 06:52:00,
2013-04-09 01:57:00,67.4,62.4,29.53,SSE,153,9.2,9.2,84,0.00,OVC,,0.00,0.0,WeatherDisplay:10.37,2013-04-09 06:57:00,
2013-04-09 02:02:00,67.4,62.4,29.53,SE,144,11.5,11.5,84,0.00,BKN,,0.00,0.0,WeatherDisplay:10.37,2013-04-09 07:02:00,
2013-04-09 02:07:00,67.3,62.3,29.53,SE,134,15.0,15.0,84,0.00,BKN,,0.00,0.0,WeatherDisplay:10.37,2013-04-09 07:07:00,
2013-04-09 02:12:00,67.3,62.3,29.53,East,84,12.7,12.7,84,0.00,BKN,,0.00,0.0,WeatherDisplay:10.37,2013-04-09 07:12:00,
2013-04-09 02:17:00,67.3,62.3,29.53,SE,132,12.7,12.7,84,0.00,BKN,,0.00,0.0,WeatherDisplay:10.37,2013-04-09 07:17:00,
2013-04-09 02:22:00,67.2,62.2,29.53,SSE,165,10.4,10.4,84,0.00,BKN,,0.00,0.0,WeatherDisplay:10.37,2013-04-09 07:22:00,
2013-04-09 02:27:00,67.2,62.2,29.53,SE,134,12.7,12.7,84,0.00,BKN,,0.00,0.0,WeatherDisplay:10.37,2013-04-09 07:27:00,
2013-04-09 02:32:00,67.2,62.2,29.53,SE,143,9.2,9.2,84,0.00,BKN,,0.00,0.0,WeatherDisplay:10.37,2013-04-09 07:32:00,
2013-04-09 02:37:00,67.1,62.4,29.53,SE,142,10.0,10.0,85,0.00,BKN,,0.00,0.0,WeatherDisplay:10.37,2013-04-09 07:37:00,
2013-04-09 02:42:00,67.1,62.4,29.52,South,170,11.5,11.5,85,0.00,BKN,,0.00,0.0,WeatherDisplay:10.37,2013-04-09 07:42:00,
2013-04-09 02:48:00,67.0,62.3,29.52,ESE,120,10.4,10.4,85,0.00,BKN,,0.00,0.0,WeatherDisplay:10.37,2013-04-09 07:48:00,
2013-04-09 02:53:00,67.0,62.3,29.51,SSE,156,11.5,11.5,85,0.00,BKN,,0.00,0.0,WeatherDisplay:10.37,2013-04-09 07:53:00,
2013-04-09 02:58:00,66.9,62.2,29.51,SE,144,10.4,10.4,85,0.00,BKN,,0.00,0.0,WeatherDisplay:10.37,2013-04-09 07:58:00,
2013-04-09 03:03:00,66.8,62.1,29.51,ESE,117,9.2,9.2,85,0.00,BKN,,0.00,0.0,WeatherDisplay:10.37,2013-04-09 08:03:00,
2013-04-09 03:08:00,66.8,62.1,29.52,SE,132,11.5,11.5,85,0.00,BKN,,0.00,0.0,WeatherDisplay:10.37,2013-04-09 08:08:00,
2013-04-09 03:13:00,66.8,62.1,29.51,SE,125,10.4,10.4,85,0.00,BKN,,0.00,0.0,WeatherDisplay:10.37,2013-04-09 08:13:00,
2013-04-09 03:18:00,66.7,62.4,29.51,East,92,16.1,16.1,86,0.00,BKN,,0.00,0.0,WeatherDisplay:10.37,2013-04-09 08:18:00,
2013-04-09 03:23:00,66.7,62.4,29.51,South,189,9.2,9.2,86,0.00,BKN,,0.00,0.0,WeatherDisplay:10.37,2013-04-09 08:23:00,
2013-04-09 03:28:00,66.6,62.3,29.51,SSE,154,9.0,9.0,86,0.00,BKN,,0.00,0.0,WeatherDisplay:10.37,2013-04-09 08:28:00,
2013-04-09 03:33:00,66.6,62.3,29.51,ESE,122,11.5,11.5,86,0.00,BKN,,0.00,0.0,WeatherDisplay:10.37,2013-04-09 08:33:00,
2013-04-09 03:38:00,66.6,62.3,29.51,ESE,109,16.1,16.1,86,0.00,BKN,,0.00,0.0,WeatherDisplay:10.37,2013-04-09 08:38:00,
2013-04-09 03:43:00,66.6,62.3,29.51,South,176,6.0,6.0,86,0.00,BKN,,0.00,0.0,WeatherDisplay:10.37,2013-04-09 08:43:00,
2013-04-09 03:48:00,66.6,62.3,29.51,SSE,160,10.0,10.0,86,0.00,BKN,,0.00,0.0,WeatherDisplay:10.37,2013-04-09 08:48:00,
2013-04-09 03:53:00,66.5,62.2,29.51,SE,142,11.5,11.5,86,0.00,BKN,,0.00,0.0,WeatherDisplay:10.37,2013-04-09 08:53:00,
2013-04-09 03:58:00,66.5,62.2,29.51,SE,138,10.4,10.4,86,0.00,BKN,,0.00,0.0,WeatherDisplay:10.37,2013-04-09 08:58:00,
2013-04-09 04:03:00,66.6,62.3,29.51,East,98,9.2,9.2,86,0.00,BKN,,0.00,0.0,WeatherDisplay:10.37,2013-04-09 09:03:00,
2013-04-09 04:08:00,66.6,62.3,29.51,South,178,13.8,13.8,86,0.00,BKN,,0.00,0.0,WeatherDisplay:10.37,2013-04-09 09:08:00,
2013-04-09 04:13:00,66.6,62.3,29.51,South,169,12.7,12.7,86,0.00,BKN,,0.00,0.0,WeatherDisplay:10.37,2013-04-09 09:13:00,
2013-04-09 04:18:00,66.7,62.4,29.52,South,188,12.7,12.7,86,0.00,BKN,,0.00,0.0,WeatherDisplay:10.37,2013-04-09 09:18:00,
2013-04-09 04:23:00,66.7,62.4,29.52,SE,146,5.8,5.8,86,0.00,BKN,,0.00,0.0,WeatherDisplay:10.37,2013-04-09 09:23:00,
2013-04-09 04:28:00,66.7,62.4,29.52,SSE,148,11.5,11.5,86,0.00,BKN,,0.00,0.0,WeatherDisplay:10.37,2013-04-09 09:28:00,
2013-04-09 04:33:00,66.7,62.4,29.52,SSW,198,18.4,18.4,86,0.00,BKN,,0.00,0.0,WeatherDisplay:10.37,2013-04-09 09:33:00,
2013-04-09 04:38:00,66.7,62.4,29.52,SE,127,16.1,16.1,86,0.00,BKN,,0.00,0.0,WeatherDisplay:10.37,2013-04-09 09:38:00,
2013-04-09 04:43:00,66.7,62.4,29.52,SE,144,11.5,11.5,86,0.00,BKN,,0.00,0.0,WeatherDisplay:10.37,2013-04-09 09:43:00,
2013-04-09 04:48:00,66.7,62.4,29.52,ESE,117,13.8,13.8,86,0.00,BKN,,0.00,0.0,WeatherDisplay:10.37,2013-04-09 09:48:00,
2013-04-09 04:53:00,66.7,62.4,29.52,SSE,167,10.4,10.4,86,0.00,OVC,,0.00,0.0,WeatherDisplay:10.37,2013-04-09 09:53:00,
2013-04-09 04:58:00,66.7,62.4,29.52,SSE,157,5.8,5.8,86,0.00,OVC,,0.00,0.0,WeatherDisplay:10.37,2013-04-09 09:58:00,
2013-04-09 05:03:00,66.7,62.0,29.52,SSE,159,11.5,11.5,85,0.00,OVC,,0.00,0.0,WeatherDisplay:10.37,2013-04-09 10:03:00,
2013-04-09 05:08:00,66.7,62.0,29.52,SE,131,6.9,6.9,85,0.00,OVC,,0.00,0.0,WeatherDisplay:10.37,2013-04-09 10:08:00,
2013-04-09 05:13:00,66.7,62.0,29.52,SSE,163,9.2,9.2,85,0.00,OVC,,0.00,0.0,WeatherDisplay:10.37,2013-04-09 10:13:00,
2013-04-09 05:18:00,66.7,62.0,29.52,South,186,11.5,11.5,85,0.00,OVC,,0.00,0.0,WeatherDisplay:10.37,2013-04-09 10:18:00,
2013-04-09 05:23:00,66.7,62.0,29.52,South,174,9.2,9.2,85,0.00,OVC,,0.00,0.0,WeatherDisplay:10.37,2013-04-09 10:23:00,
2013-04-09 05:28:00,66.7,62.0,29.52,SE,129,10.4,10.4,85,0.00,OVC,,0.00,0.0,WeatherDisplay:10.37,2013-04-09 10:28:00,
2013-04-09 05:33:00,66.7,62.0,29.52,SSW,192,7.0,7.0,85,0.00,OVC,,0.00,0.0,WeatherDisplay:10.37,2013-04-09 10:33:00,
2013-04-09 05:38:00,66.7,62.0,29.52,SSE,158,9.2,9.2,85,0.00,OVC,,0.00,0.0,WeatherDisplay:10.37,2013-04-09 10:38:00,
2013-04-09 05:43:00,66.6,61.9,29.53,SSW,197,12.7,12.7,85,0.00,OVC,,0.00,0.0,WeatherDisplay:10.37,2013-04-09 10:43:00,
2013-04-09 05:48:00,66.6,61.9,29.53,SSE,151,6.0,6.0,85,0.00,OVC,,0.00,0.0,WeatherDisplay:10.37,2013-04-09 10:48:00,
2013-04-09 05:54:00,66.6,61.9,29.53,South,176,10.0,10.0,85,0.00,OVC,,0.00,0.0,WeatherDisplay:10.37,2013-04-09 10:54:00,
2013-04-09 05:59:00,66.6,61.9,29.53,SE,134,12.7,12.7,85,0.00,OVC,,0.00,0.0,WeatherDisplay:10.37,2013-04-09 10:59:00,
2013-04-09 06:04:00,66.6,61.9,29.53,SSE,161,10.4,10.4,85,0.00,OVC,,0.00,0.0,WeatherDisplay:10.37,2013-04-09 11:04:00,
2013-04-09 06:09:00,66.6,61.9,29.53,SE,132,15.0,15.0,85,0.00,OVC,,0.00,0.0,WeatherDisplay:10.37,2013-04-09 11:09:00,
2013-04-09 06:14:00,66.6,61.9,29.53,SSE,151,12.7,12.7,85,0.00,OVC,,0.00,0.0,WeatherDisplay:10.37,2013-04-09 11:14:00,
2013-04-09 06:19:00,66.6,61.6,29.53,SE,138,11.5,11.5,84,0.00,OVC,,0.00,0.0,WeatherDisplay:10.37,2013-04-09 11:19:00,
2013-04-09 06:24:00,66.6,61.6,29.54,ESE,121,9.2,9.2,84,0.00,OVC,,0.00,0.0,WeatherDisplay:10.37,2013-04-09 11:24:00,
2013-04-09 06:30:00,66.7,61.7,29.54,SSE,147,13.8,13.8,84,0.00,OVC,,0.00,0.0,WeatherDisplay:10.37,2013-04-09 11:30:00,
2013-04-09 06:35:00,66.7,61.7,29.55,South,186,10.4,10.4,84,0.00,OVC,,0.00,0.0,WeatherDisplay:10.37,2013-04-09 11:35:00,
2013-04-09 06:40:00,66.7,61.7,29.55,SSE,164,10.4,10.4,84,0.00,OVC,,0.00,0.0,WeatherDisplay:10.37,2013-04-09 11:40:00,
2013-04-09 06:45:00,66.6,61.6,29.55,SSW,193,10.4,10.4,84,0.00,OVC,,0.00,0.0,WeatherDisplay:10.37,2013-04-09 11:45:00,
2013-04-09 06:50:00,66.6,61.6,29.55,SE,143,11.5,11.5,84,0.00,OVC,,0.00,0.0,WeatherDisplay:10.37,2013-04-09 11:50:00,
2013-04-09 06:55:00,66.6,61.6,29.56,SSE,158,5.0,12.0,84,0.00,OVC,,0.00,0.0,WeatherDisplay:10.37,2013-04-09 11:55:00,
2013-04-09 07:00:00,66.6,61.6,29.56,SSE,157,6.9,6.9,84,0.00,OVC,,0.00,0.0,WeatherDisplay:10.37,2013-04-09 12:00:00,
2013-04-09 07:05:00,66.5,61.2,29.56,SE,132,8.1,8.1,83,0.00,OVC,,0.00,0.0,WeatherDisplay:10.37,2013-04-09 12:05:00,
2013-04-09 07:10:00,66.5,61.2,29.57,South,169,13.8,13.8,83,0.00,OVC,,0.00,0.0,WeatherDisplay:10.37,2013-04-09 12:10:00,
2013-04-09 07:15:00,66.5,61.2,29.57,South,179,11.5,11.5,83,0.00,OVC,,0.00,0.0,WeatherDisplay:10.37,2013-04-09 12:15:00,
2013-04-09 07:20:00,66.5,61.2,29.57,SSE,165,12.7,12.7,83,0.00,OVC,,0.00,5.0,WeatherDisplay:10.37,2013-04-09 12:20:00,
2013-04-09 07:25:00,66.4,61.1,29.58,SSE,150,11.5,11.5,83,0.00,OVC,,0.00,5.0,WeatherDisplay:10.37,2013-04-09 12:25:00,
2013-04-09 07:30:00,66.4,61.1,29.58,SSE,157,11.5,11.5,83,0.00,OVC,,0.00,7.0,WeatherDisplay:10.37,2013-04-09 12:30:00,
2013-04-09 07:35:00,66.4,61.1,29.58,SSE,163,10.4,10.4,83,0.00,OVC,,0.00,7.0,WeatherDisplay:10.37,2013-04-09 12:35:00,
2013-04-09 07:40:00,66.3,61.3,29.58,SSE,164,11.5,11.5,84,0.00,OVC,,0.00,9.0,WeatherDisplay:10.37,2013-04-09 12:40:00,
2013-04-09 07:45:00,66.2,61.2,29.58,SSE,159,10.4,10.4,84,0.00,OVC,,0.00,11.0,WeatherDisplay:10.37,2013-04-09 12:45:00,
2013-04-09 07:51:00,66.2,61.2,29.58,SE,141,9.2,9.2,84,0.00,OVC,,0.00,16.0,WeatherDisplay:10.37,2013-04-09 12:51:00,
2013-04-09 07:56:00,66.1,61.1,29.58,SSE,149,11.5,11.5,84,0.00,OVC,,0.00,23.0,WeatherDisplay:10.37,2013-04-09 12:56:00,
2013-04-09 08:01:00,66.1,61.1,29.58,SSE,156,9.2,9.2,84,0.00,OVC,,0.00,28.0,WeatherDisplay:10.37,2013-04-09 13:01:00,
2013-04-09 08:06:00,66.1,61.1,29.57,SE,142,6.9,6.9,84,0.00,OVC,,0.00,39.0,WeatherDisplay:10.37,2013-04-09 13:06:00,
2013-04-09 08:11:00,66.1,61.1,29.57,South,175,8.1,8.1,84,0.00,OVC,,0.00,47.0,WeatherDisplay:10.37,2013-04-09 13:11:00,
2013-04-09 08:16:00,66.1,61.1,29.57,SE,141,11.5,11.5,84,0.00,OVC,,0.00,53.0,WeatherDisplay:10.37,2013-04-09 13:16:00,
2013-04-09 08:21:00,66.1,61.1,29.58,SE,128,10.4,10.4,84,0.00,OVC,,0.00,54.0,WeatherDisplay:10.37,2013-04-09 13:21:00,
2013-04-09 08:26:00,66.1,61.1,29.58,SE,137,8.1,8.1,84,0.00,OVC,,0.00,53.0,WeatherDisplay:10.37,2013-04-09 13:26:00,
2013-04-09 08:31:00,66.2,61.2,29.58,East,101,8.1,8.1,84,0.00,OVC,,0.00,60.0,WeatherDisplay:10.37,2013-04-09 13:31:00,
2013-04-09 08:36:00,66.3,61.3,29.58,SE,143,11.5,11.5,84,0.00,OVC,,0.00,54.0,WeatherDisplay:10.37,2013-04-09 13:36:00,
2013-04-09 08:41:00,66.3,61.0,29.58,SE,127,9.2,9.2,83,0.00,OVC,,0.00,58.0,WeatherDisplay:10.37,2013-04-09 13:41:00,
2013-04-09 08:46:00,66.3,61.0,29.58,SE,129,6.9,6.9,83,0.00,OVC,,0.00,63.0,WeatherDisplay:10.37,2013-04-09 13:46:00,
2013-04-09 08:51:00,66.3,61.0,29.59,South,183,10.0,10.0,83,0.00,OVC,,0.00,70.0,WeatherDisplay:10.37,2013-04-09 13:51:00,
2013-04-09 08:56:00,66.3,61.0,29.59,South,184,18.0,18.0,83,0.00,OVC,,0.00,77.0,WeatherDisplay:10.37,2013-04-09 13:56:00,
2013-04-09 09:01:00,66.4,61.1,29.59,SSE,150,6.9,6.9,83,0.00,OVC,,0.00,83.0,WeatherDisplay:10.37,2013-04-09 14:01:00,
2013-04-09 09:06:00,66.5,61.2,29.59,SE,124,8.1,8.1,83,0.00,OVC,,0.00,88.0,WeatherDisplay:10.37,2013-04-09 14:06:00,
2013-04-09 09:11:00,66.6,61.3,29.59,SSE,163,8.0,8.0,83,0.00,OVC,,0.00,93.0,WeatherDisplay:10.37,2013-04-09 14:11:00,
2013-04-09 09:16:00,66.6,61.3,29.59,ESE,114,13.8,13.8,83,0.00,OVC,,0.00,90.0,WeatherDisplay:10.37,2013-04-09 14:16:00,
2013-04-09 09:21:00,66.7,61.4,29.60,SSE,163,9.2,9.2,83,0.00,OVC,,0.00,111.0,WeatherDisplay:10.37,2013-04-09 14:21:00,
2013-04-09 09:26:00,66.7,61.4,29.60,South,179,17.3,17.3,83,0.00,OVC,,0.00,107.0,WeatherDisplay:10.37,2013-04-09 14:26:00,
2013-04-09 09:31:00,66.8,61.5,29.60,SSE,166,8.1,8.1,83,0.00,OVC,,0.00,111.0,WeatherDisplay:10.37,2013-04-09 14:31:00,
2013-04-09 09:36:00,66.8,61.5,29.61,South,169,11.5,11.5,83,0.00,OVC,,0.00,104.0,WeatherDisplay:10.37,2013-04-09 14:36:00,
2013-04-09 09:41:00,66.9,61.6,29.62,SW,217,8.1,8.1,83,0.00,OVC,,0.00,62.0,WeatherDisplay:10.37,2013-04-09 14:41:00,
2013-04-09 09:46:00,66.9,61.6,29.62,SSE,153,8.1,8.1,83,0.00,OVC,,0.00,58.0,WeatherDisplay:10.37,2013-04-09 14:46:00,
2013-04-09 09:51:00,66.8,61.5,29.62,SSW,194,10.4,10.4,83,0.00,OVC,,0.00,39.0,WeatherDisplay:10.37,2013-04-09 14:51:00,
2013-04-09 09:56:00,66.8,61.5,29.62,SSE,165,10.0,10.0,83,0.00,OVC,,0.00,63.0,WeatherDisplay:10.37,2013-04-09 14:56:00,
2013-04-09 10:02:00,66.8,61.5,29.62,SSE,152,8.1,8.1,83,0.00,OVC,,0.00,83.0,WeatherDisplay:10.37,2013-04-09 15:02:00,
2013-04-09 10:07:00,66.8,61.5,29.62,SSE,157,11.5,11.5,83,0.00,OVC,,0.00,120.0,WeatherDisplay:10.37,2013-04-09 15:07:00,
2013-04-09 10:12:00,67.0,62.0,29.61,SE,146,11.5,11.5,84,0.00,OVC,,0.00,158.0,WeatherDisplay:10.37,2013-04-09 15:12:00,
2013-04-09 10:17:00,67.3,62.0,29.62,SSE,161,7.0,7.0,83,0.00,OVC,,0.00,343.0,WeatherDisplay:10.37,2013-04-09 15:17:00,
2013-04-09 10:22:00,67.9,62.2,29.61,South,182,9.2,9.2,82,0.00,OVC,,0.00,285.0,WeatherDisplay:10.37,2013-04-09 15:22:00,
2013-04-09 10:27:00,68.6,63.2,29.61,SSE,159,7.0,7.0,83,0.00,OVC,,0.00,366.0,WeatherDisplay:10.37,2013-04-09 15:27:00,
2013-04-09 10:32:00,69.4,63.3,29.61,SSE,147,3.5,3.5,81,0.00,OVC,,0.00,265.0,WeatherDisplay:10.37,2013-04-09 15:32:00,
2013-04-09 10:37:00,69.9,62.7,29.61,ESE,107,12.7,12.7,78,0.00,OVC,,0.00,281.0,WeatherDisplay:10.37,2013-04-09 15:37:00,
2013-04-09 10:42:00,70.1,62.9,29.61,SSE,165,11.5,11.5,78,0.00,OVC,,0.00,330.0,WeatherDisplay:10.37,2013-04-09 15:42:00,
2013-04-09 10:47:00,70.2,62.6,29.61,South,180,11.5,11.5,77,0.00,OVC,,0.00,299.0,WeatherDisplay:10.37,2013-04-09 15:47:00,
2013-04-09 10:52:00,70.0,62.8,29.61,SE,137,9.2,9.2,78,0.00,OVC,,0.00,276.0,WeatherDisplay:10.37,2013-04-09 15:52:00,
2013-04-09 10:57:00,70.1,62.9,29.61,SSE,154,5.8,5.8,78,0.00,OVC,,0.00,489.0,WeatherDisplay:10.37,2013-04-09 15:57:00,
2013-04-09 11:02:00,70.4,62.8,29.61,South,171,13.8,13.8,77,0.00,BKN,,0.00,339.0,WeatherDisplay:10.37,2013-04-09 16:02:00,
2013-04-09 11:07:00,70.9,63.0,29.61,South,186,15.0,15.0,76,0.00,BKN,,0.00,512.0,WeatherDisplay:10.37,2013-04-09 16:07:00,
2013-04-09 11:12:00,71.6,63.3,29.61,SSE,148,18.4,18.4,75,0.00,BKN,,0.00,454.0,WeatherDisplay:10.37,2013-04-09 16:12:00,
2013-04-09 11:17:00,72.3,63.5,29.61,SSW,206,19.6,19.6,74,0.00,BKN,,0.00,496.0,WeatherDisplay:10.37,2013-04-09 16:17:00,
2013-04-09 11:22:00,72.8,63.2,29.60,SSW,202,16.1,16.1,72,0.00,BKN,,0.00,431.0,WeatherDisplay:10.37,2013-04-09 16:22:00,
2013-04-09 11:28:00,73.1,63.1,29.61,SSE,153,26.5,26.5,71,0.00,BKN,,0.00,480.0,WeatherDisplay:10.37,2013-04-09 16:28:00,
2013-04-09 11:33:00,73.3,63.7,29.61,ENE,72,13.8,13.8,72,0.00,BKN,,0.00,320.0,WeatherDisplay:10.37,2013-04-09 16:33:00,
2013-04-09 11:38:00,73.6,63.2,29.61,South,190,19.6,19.6,70,0.00,BKN,,0.00,387.0,WeatherDisplay:10.37,2013-04-09 16:38:00,
2013-04-09 11:43:00,73.9,63.5,29.61,South,169,18.4,18.4,70,0.00,BKN,,0.00,673.0,WeatherDisplay:10.37,2013-04-09 16:43:00,
2013-04-09 11:48:00,74.2,63.8,29.61,SSW,197,11.5,11.5,70,0.00,BKN,,0.00,619.0,WeatherDisplay:10.37,2013-04-09 16:48:00,
2013-04-09 11:53:00,74.2,63.8,29.61,SE,146,11.5,11.5,70,0.00,BKN,,0.00,701.0,WeatherDisplay:10.37,2013-04-09 16:53:00,
2013-04-09 11:58:00,74.2,63.4,29.60,SW,234,16.1,16.1,69,0.00,BKN,,0.00,362.0,WeatherDisplay:10.37,2013-04-09 16:58:00,
2013-04-09 12:03:00,74.2,63.4,29.61,South,173,24.2,24.2,69,0.00,BKN,,0.00,373.0,WeatherDisplay:10.37,2013-04-09 17:03:00,
2013-04-09 12:08:00,73.8,63.4,29.61,South,169,17.3,17.3,70,0.00,BKN,,0.00,343.0,WeatherDisplay:10.37,2013-04-09 17:08:00,
2013-04-09 12:13:00,73.7,63.3,29.61,SSW,199,12.0,12.0,70,0.00,BKN,,0.00,420.0,WeatherDisplay:10.37,2013-04-09 17:13:00,
2013-04-09 12:18:00,73.5,63.1,29.61,SSW,205,19.6,19.6,70,0.00,BKN,,0.00,325.0,WeatherDisplay:10.37,2013-04-09 17:18:00,
2013-04-09 12:23:00,73.5,63.5,29.60,SSW,199,11.5,11.5,71,0.00,BKN,,0.00,281.0,WeatherDisplay:10.37,2013-04-09 17:23:00,
2013-04-09 12:28:00,73.5,63.1,29.60,South,189,19.6,19.6,70,0.00,BKN,,0.00,422.0,WeatherDisplay:10.37,2013-04-09 17:28:00,
2013-04-09 12:33:00,73.6,63.2,29.60,SSE,163,19.6,19.6,70,0.00,BKN,,0.00,401.0,WeatherDisplay:10.37,2013-04-09 17:33:00,
2013-04-09 12:38:00,73.7,63.7,29.60,ENE,77,12.7,12.7,71,0.00,BKN,,0.00,420.0,WeatherDisplay:10.37,2013-04-09 17:38:00,
2013-04-09 12:43:00,73.7,63.7,29.60,SSW,209,11.5,11.5,71,0.00,BKN,,0.00,292.0,WeatherDisplay:10.37,2013-04-09 17:43:00,
2013-04-09 12:48:00,73.6,63.6,29.60,SSW,209,9.2,9.2,71,0.00,BKN,,0.00,206.0,WeatherDisplay:10.37,2013-04-09 17:48:00,
2013-04-09 12:53:00,73.3,63.3,29.60,South,176,16.1,16.1,71,0.00,BKN,,0.00,148.0,WeatherDisplay:10.37,2013-04-09 17:53:00,
2013-04-09 12:58:00,72.7,63.1,29.60,SW,226,18.4,18.4,72,0.00,BKN,,0.00,93.0,WeatherDisplay:10.37,2013-04-09 17:58:00,
2013-04-09 13:03:00,72.2,63.1,29.60,SSW,192,11.5,11.5,73,0.00,BKN,,0.00,88.0,WeatherDisplay:10.37,2013-04-09 18:03:00,
2013-04-09 13:08:00,71.9,63.2,29.60,SSW,195,10.4,10.4,74,0.00,BKN,,0.00,88.0,WeatherDisplay:10.37,2013-04-09 18:08:00,
2013-04-09 13:13:00,71.7,63.0,29.60,SSE,155,3.5,3.5,74,0.00,OVC,,0.00,98.0,WeatherDisplay:10.37,2013-04-09 18:13:00,
2013-04-09 13:18:00,71.7,63.4,29.60,SSE,163,3.5,3.5,75,0.00,OVC,,0.00,67.0,WeatherDisplay:10.37,2013-04-09 18:18:00,
2013-04-09 13:23:00,71.6,62.9,29.60,SSE,158,10.4,10.4,74,0.00,OVC,,0.00,91.0,WeatherDisplay:10.37,2013-04-09 18:23:00,
2013-04-09 13:28:00,71.6,63.3,29.59,SSE,168,6.9,6.9,75,0.00,OVC,,0.00,79.0,WeatherDisplay:10.37,2013-04-09 18:28:00,
2013-04-09 13:33:00,71.5,63.2,29.59,SE,128,9.2,9.2,75,0.00,OVC,,0.00,65.0,WeatherDisplay:10.37,2013-04-09 18:33:00,
2013-04-09 13:38:00,71.4,63.4,29.59,SSE,163,8.1,8.1,76,0.00,OVC,,0.00,65.0,WeatherDisplay:10.37,2013-04-09 18:38:00,
2013-04-09 13:43:00,71.3,63.3,29.59,SSE,150,6.9,6.9,76,0.00,OVC,,0.00,58.0,WeatherDisplay:10.37,2013-04-09 18:43:00,
2013-04-09 13:48:00,71.2,62.9,29.59,South,175,11.5,11.5,75,0.00,OVC,,0.00,53.0,WeatherDisplay:10.37,2013-04-09 18:48:00,
2013-04-09 13:53:00,71.2,62.9,29.59,South,171,9.2,9.2,75,0.00,OVC,,0.00,53.0,WeatherDisplay:10.37,2013-04-09 18:53:00,
2013-04-09 13:58:00,71.1,63.1,29.59,SSE,167,4.6,4.6,76,0.00,OVC,,0.00,53.0,WeatherDisplay:10.37,2013-04-09 18:58:00,
2013-04-09 14:03:00,71.0,63.1,29.59,SSW,209,8.1,8.1,76,0.00,OVC,,0.00,39.0,WeatherDisplay:10.37,2013-04-09 19:03:00,
2013-04-09 14:08:00,71.0,63.1,29.59,South,169,8.0,8.0,76,0.00,OVC,,0.00,65.0,WeatherDisplay:10.37,2013-04-09 19:08:00,
2013-04-09 14:13:00,71.1,63.5,29.59,SE,146,4.6,4.6,77,0.00,OVC,,0.00,199.0,WeatherDisplay:10.37,2013-04-09 19:13:00,
2013-04-09 14:18:00,71.3,63.7,29.59,SSW,196,9.2,9.2,77,0.00,OVC,,0.00,260.0,WeatherDisplay:10.37,2013-04-09 19:18:00,
2013-04-09 14:23:00,71.7,64.1,29.59,SE,132,7.0,7.0,77,0.00,OVC,,0.00,362.0,WeatherDisplay:10.37,2013-04-09 19:23:00,
2013-04-09 14:28:00,72.4,64.4,29.59,SSE,148,10.4,10.4,76,0.00,OVC,,0.00,452.0,WeatherDisplay:10.37,2013-04-09 19:28:00,
2013-04-09 14:33:00,73.3,64.9,29.59,East,89,15.0,15.0,75,0.00,OVC,,0.00,570.0,WeatherDisplay:10.37,2013-04-09 19:33:00,
2013-04-09 14:38:00,74.0,64.4,29.59,South,189,10.4,10.4,72,0.00,OVC,,0.00,199.0,WeatherDisplay:10.37,2013-04-09 19:38:00,
2013-04-09 14:44:00,74.3,64.3,29.59,SE,126,13.0,13.0,71,0.00,OVC,,0.00,287.0,WeatherDisplay:10.37,2013-04-09 19:44:00,
2013-04-09 14:49:00,74.3,64.3,29.59,South,188,11.5,11.5,71,0.00,OVC,,0.00,267.0,WeatherDisplay:10.37,2013-04-09 19:49:00,
2013-04-09 14:54:00,74.3,64.3,29.59,South,180,11.5,11.5,71,0.00,OVC,,0.00,130.0,WeatherDisplay:10.37,2013-04-09 19:54:00,
2013-04-09 14:59:00,74.1,64.1,29.59,South,182,9.2,9.2,71,0.00,OVC,,0.00,74.0,WeatherDisplay:10.37,2013-04-09 19:59:00,
2013-04-09 15:04:00,73.9,63.9,29.59,South,172,11.5,11.5,71,0.00,OVC,,0.00,97.0,WeatherDisplay:10.37,2013-04-09 20:04:00,
2013-04-09 15:10:00,73.7,63.7,29.59,South,186,3.0,12.0,71,0.00,OVC,,0.00,54.0,WeatherDisplay:10.37,2013-04-09 20:10:00,
2013-04-09 15:15:00,69.2,53.3,29.62,West,270,12.7,12.7,57,0.00,OVC,,0.00,19.0,WeatherDisplay:10.37,2013-04-09 20:15:00,
2013-04-09 15:20:00,61.8,49.9,29.63,NW,313,23.0,23.0,65,0.00,OVC,,0.00,26.0,WeatherDisplay:10.37,2013-04-09 20:20:00,
2013-04-09 15:25:00,56.5,49.0,29.65,WNW,298,26.5,26.5,76,0.00,OVC,,0.00,9.0,WeatherDisplay:10.37,2013-04-09 20:25:00,
2013-04-09 15:30:00,53.7,48.3,29.64,NW,324,10.4,10.4,82,0.02,RA,,0.03,19.0,WeatherDisplay:10.37,2013-04-09 20:30:00,
2013-04-09 15:36:00,51.7,48.0,29.65,NW,309,20.7,20.7,87,0.04,RA,,0.05,53.0,WeatherDisplay:10.37,2013-04-09 20:36:00,
2013-04-09 15:41:00,50.8,48.0,29.66,NW,324,11.5,11.5,90,0.05,RA,,0.05,139.0,WeatherDisplay:10.37,2013-04-09 20:41:00,
2013-04-09 15:46:00,49.8,47.0,29.65,NW,319,19.0,19.0,90,0.05,OVC,,0.05,199.0,WeatherDisplay:10.37,2013-04-09 20:46:00,
2013-04-09 15:52:00,49.5,47.0,29.65,North,355,15.0,15.0,91,0.05,-RA,,0.05,197.0,WeatherDisplay:10.37,2013-04-09 20:52:00,
2013-04-09 15:57:00,49.1,46.6,29.65,NNW,335,17.3,17.3,91,0.05,-RA,,0.05,657.0,WeatherDisplay:10.37,2013-04-09 20:57:00,
2013-04-09 16:02:00,49.4,47.5,29.65,NW,319,12.0,12.0,93,0.05,-RA,,0.05,218.0,WeatherDisplay:10.37,2013-04-09 21:02:00,
2013-04-09 16:07:00,49.0,46.5,29.66,NW,317,13.8,13.8,91,0.05,-RA,,0.05,120.0,WeatherDisplay:10.37,2013-04-09 21:07:00,
2013-04-09 16:12:00,49.0,46.8,29.66,NW,325,11.5,11.5,92,0.05,-RA,,0.05,139.0,WeatherDisplay:10.37,2013-04-09 21:12:00,
2013-04-09 16:17:00,48.6,46.1,29.67,NW,313,18.4,18.4,91,0.05,-RA,,0.05,232.0,WeatherDisplay:10.37,2013-04-09 21:17:00,
2013-04-09 16:22:00,48.4,45.9,29.67,WNW,286,17.3,17.3,91,0.05,-RA,,0.05,130.0,WeatherDisplay:10.37,2013-04-09 21:22:00,
2013-04-09 16:27:00,47.9,45.1,29.66,North,360,18.4,18.4,90,0.05,-RA,,0.05,156.0,WeatherDisplay:10.37,2013-04-09 21:27:00,
2013-04-09 16:32:00,47.7,44.9,29.67,NW,311,19.6,19.6,90,0.01,-RA,,0.05,118.0,WeatherDisplay:10.37,2013-04-09 21:32:00,
2013-04-09 16:37:00,47.4,44.9,29.67,NNW,336,14.0,14.0,91,0.00,-RA,,0.05,202.0,WeatherDisplay:10.37,2013-04-09 21:37:00,
2013-04-09 16:42:00,47.3,44.5,29.67,NW,321,15.0,15.0,90,0.00,-RA,,0.05,186.0,WeatherDisplay:10.37,2013-04-09 21:42:00,
2013-04-09 16:47:00,47.1,44.0,29.67,NNW,333,18.4,18.4,89,0.00,-RA,,0.05,109.0,WeatherDisplay:10.37,2013-04-09 21:47:00,
2013-04-09 16:52:00,47.0,44.2,29.67,NW,315,20.0,20.0,90,0.00,-RA,,0.05,174.0,WeatherDisplay:10.37,2013-04-09 21:52:00,
2013-04-09 16:57:00,46.9,44.1,29.68,NW,321,19.6,19.6,90,0.00,-RA,,0.05,127.0,WeatherDisplay:10.37,2013-04-09 21:57:00,
2013-04-09 17:02:00,46.5,43.4,29.69,NNW,327,12.7,12.7,89,0.00,OVC,,0.05,121.0,WeatherDisplay:10.37,2013-04-09 22:02:00,
2013-04-09 17:07:00,46.0,42.9,29.70,NNW,335,19.6,19.6,89,0.00,OVC,,0.05,69.0,WeatherDisplay:10.37,2013-04-09 22:07:00,
2013-04-09 17:12:00,45.6,42.5,29.70,NW,306,24.2,24.2,89,0.00,OVC,,0.05,90.0,WeatherDisplay:10.37,2013-04-09 22:12:00,
2013-04-09 17:17:00,45.4,42.3,29.70,NW,317,20.0,20.0,89,0.00,OVC,,0.05,25.0,WeatherDisplay:10.37,2013-04-09 22:17:00,
2013-04-09 17:22:00,45.2,42.4,29.71,NW,307,17.3,17.3,90,0.00,OVC,,0.05,62.0,WeatherDisplay:10.37,2013-04-09 22:22:00,
2013-04-09 17:27:00,45.1,42.3,29.71,NNW,340,13.8,13.8,90,0.00,OVC,,0.05,70.0,WeatherDisplay:10.37,2013-04-09 22:27:00,
2013-04-09 17:32:00,45.1,42.6,29.72,NW,310,18.4,18.4,91,0.00,OVC,,0.05,69.0,WeatherDisplay:10.37,2013-04-09 22:32:00,
2013-04-09 17:37:00,44.9,42.4,29.71,NNW,339,19.6,19.6,91,0.01,RA,,0.06,67.0,WeatherDisplay:10.37,2013-04-09 22:37:00,
2013-04-09 17:42:00,44.7,42.5,29.71,NNW,342,19.6,19.6,92,0.01,OVC,,0.06,77.0,WeatherDisplay:10.37,2013-04-09 22:42:00,
2013-04-09 17:47:00,44.4,42.2,29.71,NNW,340,19.6,19.6,92,0.01,OVC,,0.06,47.0,WeatherDisplay:10.37,2013-04-09 22:47:00,
2013-04-09 17:52:00,44.3,42.1,29.73,NNW,327,15.0,15.0,92,0.01,OVC,,0.06,28.0,WeatherDisplay:10.37,2013-04-09 22:52:00,
2013-04-09 17:57:00,44.2,42.0,29.73,NNW,344,16.1,16.1,92,0.01,OVC,,0.06,26.0,WeatherDisplay:10.37,2013-04-09 22:57:00,
2013-04-09 18:02:00,44.1,41.9,29.74,WNW,298,12.7,12.7,92,0.01,OVC,,0.06,32.0,WeatherDisplay:10.37,2013-04-09 23:02:00,
2013-04-09 18:07:00,44.0,41.8,29.74,NW,323,18.4,18.4,92,0.01,OVC,,0.06,23.0,WeatherDisplay:10.37,2013-04-09 23:07:00,
2013-04-09 18:12:00,43.8,41.6,29.73,NW,308,21.9,21.9,92,0.01,-RA,,0.06,32.0,WeatherDisplay:10.37,2013-04-09 23:12:00,
2013-04-09 18:18:00,43.4,40.9,29.74,WNW,292,19.6,19.6,91,0.01,-RA,,0.06,33.0,WeatherDisplay:10.37,2013-04-09 23:18:00,
2013-04-09 18:23:00,43.3,40.8,29.74,WNW,300,13.8,13.8,91,0.01,-RA,,0.06,32.0,WeatherDisplay:10.37,2013-04-09 23:23:00,
2013-04-09 18:28:00,43.3,41.1,29.75,NW,321,17.3,17.3,92,0.01,-RA,,0.06,23.0,WeatherDisplay:10.37,2013-04-09 23:28:00,
2013-04-09 18:33:00,43.2,41.0,29.74,NW,317,15.0,15.0,92,0.01,-RA,,0.06,16.0,WeatherDisplay:10.37,2013-04-09 23:33:00,
2013-04-09 18:38:00,43.1,40.7,29.74,NW,317,21.9,21.9,91,0.00,-RA,,0.06,11.0,WeatherDisplay:10.37,2013-04-09 23:38:00,
2013-04-09 18:43:00,43.0,40.6,29.75,WNW,294,17.3,17.3,91,0.00,-RA,,0.06,14.0,WeatherDisplay:10.37,2013-04-09 23:43:00,
2013-04-09 18:48:00,42.9,40.5,29.75,NNW,327,17.3,17.3,91,0.00,-RA,,0.06,16.0,WeatherDisplay:10.37,2013-04-09 23:48:00,
2013-04-09 18:53:00,42.8,40.4,29.75,NW,320,17.3,17.3,91,0.00,-RA,,0.06,11.0,WeatherDisplay:10.37,2013-04-09 23:53:00,
2013-04-09 18:58:00,42.7,40.3,29.75,NW,309,15.0,15.0,91,0.00,-RA,,0.06,12.0,WeatherDisplay:10.37,2013-04-09 23:58:00,
2013-04-09 19:03:00,42.2,39.8,29.75,WNW,291,17.3,17.3,91,0.00,OVC,,0.06,9.0,WeatherDisplay:10.37,2013-04-10 00:03:00,
2013-04-09 19:08:00,41.3,38.6,29.76,NW,319,21.9,21.9,90,0.00,OVC,,0.06,9.0,WeatherDisplay:10.37,2013-04-10 00:08:00,
2013-04-09 19:13:00,40.6,38.2,29.75,NW,325,15.0,15.0,91,0.00,OVC,,0.06,7.0,WeatherDisplay:10.37,2013-04-10 00:13:00,
2013-04-09 19:18:00,40.0,37.6,29.76,North,5,19.6,19.6,91,0.00,OVC,,0.06,5.0,WeatherDisplay:10.37,2013-04-10 00:18:00,
2013-04-09 19:23:00,39.6,37.2,29.76,NW,304,24.2,24.2,91,0.00,OVC,,0.06,0.0,WeatherDisplay:10.37,2013-04-10 00:23:00,
2013-04-09 19:28:00,39.2,36.8,29.75,NNW,336,19.6,19.6,91,0.00,OVC,,0.06,0.0,WeatherDisplay:10.37,2013-04-10 00:28:00,
2013-04-09 19:33:00,38.9,36.5,29.75,NNW,344,19.6,19.6,91,0.00,OVC,,0.06,0.0,WeatherDisplay:10.37,2013-04-10 00:33:00,
2013-04-09 19:38:00,38.7,36.3,29.75,NNW,340,23.0,23.0,91,0.00,OVC,,0.06,0.0,WeatherDisplay:10.37,2013-04-10 00:38:00,
2013-04-09 19:43:00,38.4,36.0,29.75,NNW,330,16.1,16.1,91,0.00,OVC,,0.06,0.0,WeatherDisplay:10.37,2013-04-10 00:43:00,
2013-04-09 19:48:00,38.1,36.0,29.75,NW,316,21.0,21.0,92,0.00,OVC,,0.06,0.0,WeatherDisplay:10.37,2013-04-10 00:48:00,
2013-04-09 19:53:00,37.9,35.8,29.76,NNW,340,18.4,18.4,92,0.00,OVC,,0.06,0.0,WeatherDisplay:10.37,2013-04-10 00:53:00,
2013-04-09 19:58:00,37.7,35.3,29.77,NW,311,18.4,18.4,91,0.00,OVC,,0.06,0.0,WeatherDisplay:10.37,2013-04-10 00:58:00,
2013-04-09 20:03:00,37.3,35.2,29.76,NW,321,20.7,20.7,92,0.00,OVC,,0.06,0.0,WeatherDisplay:10.37,2013-04-10 01:03:00,
2013-04-09 20:08:00,36.9,34.5,29.77,NNW,333,23.0,23.0,91,0.00,OVC,,0.06,0.0,WeatherDisplay:10.37,2013-04-10 01:08:00,
2013-04-09 20:13:00,36.7,34.3,29.76,NNW,348,19.6,19.6,91,0.00,OVC,,0.06,0.0,WeatherDisplay:10.37,2013-04-10 01:13:00,
2013-04-09 20:18:00,36.7,34.6,29.76,NW,304,17.3,17.3,92,0.00,OVC,,0.06,0.0,WeatherDisplay:10.37,2013-04-10 01:18:00,
2013-04-09 20:23:00,36.7,34.6,29.77,NW,316,19.6,19.6,92,0.00,OVC,,0.06,0.0,WeatherDisplay:10.37,2013-04-10 01:23:00,
2013-04-09 20:29:00,36.5,34.4,29.76,NW,315,17.3,17.3,92,0.00,OVC,,0.06,0.0,WeatherDisplay:10.37,2013-04-10 01:29:00,
2013-04-09 20:34:00,36.3,34.2,29.78,NNW,348,19.6,19.6,92,0.00,OVC,,0.06,0.0,WeatherDisplay:10.37,2013-04-10 01:34:00,
2013-04-09 20:39:00,36.1,34.3,29.80,NNW,346,20.7,20.7,93,0.00,OVC,,0.06,0.0,WeatherDisplay:10.37,2013-04-10 01:39:00,
2013-04-09 20:44:00,35.9,33.8,29.83,WNW,298,20.0,20.0,92,0.00,OVC,,0.06,0.0,WeatherDisplay:10.37,2013-04-10 01:44:00,
2013-04-09 20:49:00,35.9,33.8,29.82,NNW,331,20.7,20.7,92,0.00,OVC,,0.06,0.0,WeatherDisplay:10.37,2013-04-10 01:49:00,
2013-04-09 20:54:00,35.7,33.6,29.82,WNW,300,21.9,21.9,92,0.00,OVC,,0.06,0.0,WeatherDisplay:10.37,2013-04-10 01:54:00,
2013-04-09 20:59:00,35.5,33.7,29.80,NW,304,18.4,18.4,93,0.00,OVC,,0.06,0.0,WeatherDisplay:10.37,2013-04-10 01:59:00,
2013-04-09 21:04:00,35.2,33.4,29.79,NW,309,25.3,25.3,93,0.00,-RA,,0.06,0.0,WeatherDisplay:10.37,2013-04-10 02:04:00,
2013-04-09 21:09:00,35.1,33.3,29.80,NNW,335,17.3,17.3,93,0.00,-RA,,0.06,0.0,WeatherDisplay:10.37,2013-04-10 02:09:00,
2013-04-09 21:14:00,35.1,33.3,29.80,North,355,15.0,15.0,93,0.00,-RA,,0.06,0.0,WeatherDisplay:10.37,2013-04-10 02:14:00,
2013-04-09 21:19:00,35.0,33.2,29.79,NW,321,17.0,17.0,93,0.00,-RA,,0.06,0.0,WeatherDisplay:10.37,2013-04-10 02:19:00,
2013-04-09 21:24:00,34.8,33.0,29.79,North,355,18.0,18.0,93,0.00,-RA,,0.06,0.0,WeatherDisplay:10.37,2013-04-10 02:24:00,
2013-04-09 21:29:00,34.8,32.7,29.80,North,355,19.6,19.6,92,0.00,-RA,,0.06,0.0,WeatherDisplay:10.37,2013-04-10 02:29:00,
2013-04-09 21:34:00,34.7,32.6,29.81,NNW,348,23.0,23.0,92,0.00,-RA,,0.06,0.0,WeatherDisplay:10.37,2013-04-10 02:34:00,
2013-04-09 21:39:00,34.7,32.3,29.84,NW,306,26.5,26.5,91,0.00,-RA,,0.06,0.0,WeatherDisplay:10.37,2013-04-10 02:39:00,
2013-04-09 21:44:00,34.8,32.7,29.90,NNW,342,26.5,26.5,92,0.00,-RA,,0.06,0.0,WeatherDisplay:10.37,2013-04-10 02:44:00,
2013-04-09 21:49:00,34.7,32.3,29.91,West,273,19.6,19.6,91,0.00,-RA,,0.06,0.0,WeatherDisplay:10.37,2013-04-10 02:49:00,
2013-04-09 21:54:00,34.6,32.2,29.91,NW,313,20.7,20.7,91,0.00,-RA,,0.06,0.0,WeatherDisplay:10.37,2013-04-10 02:54:00,
2013-04-09 21:59:00,34.4,32.0,29.89,NNW,327,19.6,19.6,91,0.00,-RA,,0.06,0.0,WeatherDisplay:10.37,2013-04-10 02:59:00,
2013-04-09 22:04:00,34.0,31.6,29.88,WNW,301,23.0,23.0,91,0.02,-RA,,0.08,0.0,WeatherDisplay:10.37,2013-04-10 03:04:00,
2013-04-09 22:09:00,33.9,31.8,29.91,NNW,328,11.5,11.5,92,0.02,-RA,,0.08,0.0,WeatherDisplay:10.37,2013-04-10 03:09:00,
2013-04-09 22:14:00,33.9,31.8,29.94,WNW,299,13.8,13.8,92,0.02,-RA,,0.08,0.0,WeatherDisplay:10.37,2013-04-10 03:14:00,
2013-04-09 22:19:00,34.0,32.2,29.91,NNW,340,16.1,16.1,93,0.02,-RA,,0.08,0.0,WeatherDisplay:10.37,2013-04-10 03:19:00,
2013-04-09 22:24:00,34.0,32.2,29.95,WNW,292,19.6,19.6,93,0.02,-RA,,0.09,0.0,WeatherDisplay:10.37,2013-04-10 03:24:00,
2013-04-09 22:29:00,33.9,32.1,29.89,WSW,254,28.8,28.8,93,0.04,-RA,,0.10,0.0,WeatherDisplay:10.37,2013-04-10 03:29:00,
2013-04-09 22:34:00,33.8,32.0,29.95,NNE,20,16.1,16.1,93,0.04,-RA,,0.10,0.0,WeatherDisplay:10.37,2013-04-10 03:34:00,
2013-04-09 22:39:00,33.8,32.3,29.92,North,355,12.7,12.7,94,0.06,-RA,,0.13,0.0,WeatherDisplay:10.37,2013-04-10 03:39:00,
2013-04-09 22:44:00,33.4,31.9,29.88,NNW,328,25.3,25.3,94,0.11,RA,,0.18,0.0,WeatherDisplay:10.37,2013-04-10 03:44:00,
2013-04-09 22:49:00,33.3,31.8,29.88,ENE,57,20.7,20.7,94,0.13,RA,,0.19,0.0,WeatherDisplay:10.37,2013-04-10 03:49:00,
2013-04-09 22:54:00,33.1,31.6,29.90,NNE,16,26.5,26.5,94,0.13,OVC,,0.19,0.0,WeatherDisplay:10.37,2013-04-10 03:54:00,
2013-04-09 22:59:00,33.0,31.5,29.91,NW,318,19.6,19.6,94,0.14,RA,,0.23,0.0,WeatherDisplay:10.37,2013-04-10 03:59:00,
2013-04-09 23:00:00,33.0,31.4,29.91,NNW,339,9.0,20.0,94,0.01,RA,,0.24,0.0,WeatherDisplay:10.37,2013-04-10 04:00:00,
2013-04-09 23:05:00,32.7,31.2,29.87,NNE,16,21.9,21.9,94,0.26,RA,,0.34,0.0,WeatherDisplay:10.37,2013-04-10 04:05:00,
2013-04-09 23:10:00,32.6,31.1,29.85,NW,316,18.4,18.4,94,0.29,RA,,0.38,0.0,WeatherDisplay:10.37,2013-04-10 04:10:00,
2013-04-09 23:15:00,32.6,31.3,29.86,NW,325,16.1,16.1,95,0.32,RA,,0.41,0.0,WeatherDisplay:10.37,2013-04-10 04:15:00,
2013-04-09 23:20:00,32.6,31.3,29.89,West,275,12.7,12.7,95,0.35,RA,,0.43,0.0,WeatherDisplay:10.37,2013-04-10 04:20:00,
2013-04-09 23:25:00,32.7,31.4,29.92,NW,325,20.7,20.7,95,0.35,RA,,0.44,0.0,WeatherDisplay:10.37,2013-04-10 04:25:00,
2013-04-09 23:30:00,32.8,31.5,29.93,NNW,346,15.0,15.0,95,0.35,RA,,0.45,0.0,WeatherDisplay:10.37,2013-04-10 04:30:00,
2013-04-09 23:35:00,32.8,31.5,29.92,WNW,286,13.8,13.8,95,0.35,OVC,,0.45,0.0,WeatherDisplay:10.37,2013-04-10 04:35:00,
2013-04-09 23:40:00,32.8,31.5,29.93,North,350,17.3,17.3,95,0.32,RA,,0.46,0.0,WeatherDisplay:10.37,2013-04-10 04:40:00,
2013-04-09 23:45:00,32.9,31.4,29.88,NNW,328,19.6,19.6,94,0.28,OVC,,0.46,0.0,WeatherDisplay:10.37,2013-04-10 04:45:00,
2013-04-09 23:50:00,33.0,31.5,29.86,North,5,19.6,19.6,94,0.27,OVC,,0.46,0.0,WeatherDisplay:10.37,2013-04-10 04:50:00,
2013-04-09 23:55:00,33.0,31.7,29.84,NW,325,18.4,18.4,95,0.27,OVC,,0.46,0.0,WeatherDisplay:10.37,2013-04-10 04:55:00,